DW6440 Weather Reports


Display with metric or nautical units.
time (UTC)temp
F
wind
direction
speed
MPH
gust
MPH
rain 1hr
in
rain 24hr
in
rain mn
in
humidity
%
barometer
mb
20260903161730 81 194 4.0 10.0 0.00 1.80 1.25 82 1015.9
20260903161232 80 210 3.0 10.0 0.00 1.80 1.25 84 1016.0
20260903161201 80 220 4.0 11.0 0.00 1.80 1.25 84 1016.0
20260903160825 80 252 4.0 11.0 0.00 1.80 1.25 84 1016.0
20260903155731 80 288 4.0 9.0 0.00 1.80 1.25 84 1016.1
20260903155454 81 255 3.0 9.0 0.00 1.80 1.25 84 1016.0
20260903154958 81 197 3.0 8.0 0.00 1.80 1.25 84 1016.2
20260903154227 81 192 2.0 9.0 0.00 1.80 1.25 86 1016.3
20260903153948 81 238 2.0 9.0 0.00 1.80 1.25 84 1016.6
20260903153226 80 254 3.0 9.0 0.00 1.80 1.25 85 1016.4
20260903152726 80 212 2.0 9.0 0.00 1.80 1.25 86 1016.7
20260903152226 80 341 1.0 7.0 0.00 1.80 1.25 87 1016.7
20260903151947 81 341 2.0 8.0 0.00 1.80 1.25 88 1016.9
20260903151228 80 285 2.0 8.0 0.00 1.80 1.25 88 1016.7
20260903150726 79 213 2.0 7.0 0.00 1.80 1.25 87 1016.6
20260903150500 79 211 2.0 7.0 0.00 1.80 1.25 89 1016.5
20260903145727 78 253 2.0 10.0 0.00 1.80 1.25 91 1016.5
20260903145228 77 209 3.0 10.0 0.00 1.80 1.25 90 1016.6
20260903144729 77 235 2.0 7.0 0.00 1.80 1.25 91 1016.6
20260903144228 77 258 2.0 7.0 0.00 1.80 1.25 91 1016.9
20260903143726 77 305 2.0 6.0 0.00 1.80 1.25 91 1017.1
20260903143229 77 273 2.0 7.0 0.00 1.80 1.25 91 1016.7
20260903142727 77 279 3.0 8.0 0.00 1.80 1.25 90 1016.3
20260903142226 77 234 4.0 8.0 0.00 1.80 1.25 91 1016.0
20260903141725 76 214 3.0 7.0 0.00 1.80 1.25 91 1015.9
20260903141226 76 208 3.0 9.0 0.00 1.80 1.25 92 1016.0
20260903140723 75 244 4.0 14.0 0.00 1.80 1.25 92 1015.8
20260903140222 75 221 3.0 14.0 0.00 1.80 1.25 92 1015.8
20260903135721 75 266 3.0 7.0 0.00 1.80 1.25 92 1015.9
20260903135449 75 211 3.0 7.0 0.00 1.80 1.25 93 1015.9
20260903134720 75 182 3.0 9.0 0.00 1.80 1.25 93 1015.9
20260903134218 74 215 3.0 9.0 0.00 1.80 1.25 93 1015.9
20260903133723 74 213 3.0 7.0 0.00 1.80 1.25 93 1016.0
20260903133500 74 207 3.0 7.0 0.00 1.80 1.25 93 1015.9
20260903132718 74 209 3.0 8.0 0.00 1.80 1.25 93 1016.1
20260903132218 74 256 3.0 8.0 0.00 1.80 1.25 93 1015.9
20260903131720 74 210 3.0 10.0 0.00 1.80 1.25 93 1015.9
20260903131217 74 220 3.0 10.0 0.00 1.80 1.25 94 1015.8
20260903130713 74 230 2.0 7.0 0.00 1.80 1.25 94 1015.9
20260903130215 74 192 3.0 8.0 0.00 1.80 1.25 94 1015.8
20260903125712 73 217 3.0 8.0 0.00 1.80 1.25 94 1015.6
20260903125213 73 191 3.0 7.0 0.00 1.80 1.25 94 1015.5
20260903124936 73 198 3.0 9.0 0.00 1.80 1.25 94 1015.6
20260903124212 72 208 2.0 9.0 0.00 1.80 1.25 94 1015.5
20260903123713 72 226 2.0 8.0 0.00 1.80 1.25 94 1015.7
20260903123443 72 238 2.0 8.0 0.00 1.80 1.25 94 1015.6
20260903122711 72 219 1.0 4.0 0.00 1.80 1.25 94 1015.7
20260903122217 72 199 1.0 4.0 0.00 1.80 1.25 95 1015.7
20260903121941 72 208 2.0 6.0 0.00 1.80 1.25 95 1015.9
20260903121430 71 205 2.0 10.0 0.00 1.80 1.25 94 1015.9
20260903120712 71 331 3.0 12.0 0.00 1.80 1.25 94 1015.9
20260903120216 71 148 4.0 12.0 0.00 1.80 1.25 95 1016.0
20260903115713 71 176 3.0 9.0 0.00 1.80 1.25 95 1016.2
20260903115435 71 155 3.0 10.0 0.01 1.80 1.25 94 1016.3
20260903114711 71 191 3.0 10.0 0.01 1.80 1.25 94 1016.4
20260903114208 71 196 3.0 6.0 0.01 1.80 1.25 94 1016.4
20260903113708 71 217 2.0 7.0 0.02 1.80 1.25 94 1016.3
20260903113213 71 159 2.0 7.0 0.02 1.80 1.25 94 1016.3
20260903112708 70 173 2.0 7.0 0.02 1.80 1.25 95 1016.4
20260903112208 70 173 2.0 7.0 0.03 1.80 1.25 95 1016.6
20260903111927 70 15 1.0 4.0 0.03 1.80 1.25 95 1016.6
20260903111204 70 15 0.0 3.0 0.03 1.80 1.25 95 1016.7
20260903110703 70 15 1.0 3.0 0.03 1.80 1.25 95 1016.9
20260903110202 70 15 1.0 3.0 0.03 1.80 1.25 95 1016.9
20260903105700 70 15 1.0 5.0 0.03 1.80 1.25 95 1017.4
20260903105159 70 15 1.0 5.0 0.02 1.79 1.24 95 1017.4
20260903104700 70 15 1.0 2.0 0.02 1.79 1.24 94 1017.5
20260903104200 70 15 1.0 4.0 0.02 1.79 1.24 94 1017.4
20260903103700 70 15 1.0 4.0 0.01 1.78 1.23 94 1017.7
20260903103158 70 15 1.0 3.0 0.12 1.78 1.23 95 1017.7
20260903102657 70 15 1.0 3.0 0.14 1.78 1.23 94 1017.8
20260903102158 70 15 1.0 3.0 0.14 1.77 1.22 94 1017.5
20260903101657 70 15 1.0 4.0 0.15 1.77 1.22 94 1017.3
20260903101153 70 15 1.0 4.0 0.15 1.77 1.22 94 1017.2
20260903100654 70 15 1.0 2.0 0.15 1.77 1.22 94 1017.1
20260903100157 70 15 1.0 2.0 0.15 1.77 1.22 94 1017.1
20260903095656 70 15 1.0 2.0 0.15 1.77 1.22 94 1017.2
20260903095153 70 15 0.0 2.0 0.18 1.77 1.22 94 1017.0
20260903094651 70 15 0.0 1.0 0.22 1.77 1.22 94 1016.9
20260903094422 70 15 1.0 2.0 0.22 1.77 1.22 94 1017.1
20260903093652 70 15 1.0 3.0 0.22 1.77 1.22 94 1017.2
20260903093152 70 15 1.0 3.0 0.11 1.66 1.13 94 1017.5
20260903092651 70 15 1.0 3.0 0.09 1.64 1.09 94 1017.7
20260903092148 70 15 1.0 3.0 0.09 1.63 1.08 94 1017.5
20260903091648 70 15 1.0 3.0 0.17 1.62 1.07 94 1017.5
20260903091148 70 15 0.0 3.0 0.25 1.62 1.07 94 1017.6
20260903090650 70 15 0.0 2.0 0.25 1.62 1.07 94 1017.8
20260903090200 70 15 1.0 5.0 0.25 1.62 1.07 94 1017.8
20260903085646 70 15 3.0 9.0 0.25 1.62 1.07 94 1017.7
20260903085143 70 15 3.0 9.0 0.21 1.57 1.04 94 1018.0
20260903084640 70 22 2.0 6.0 0.19 1.55 1.00 94 1018.4
20260903084140 70 22 1.0 3.0 0.19 1.55 1.00 94 1017.4
20260903083653 70 22 1.0 5.0 0.19 1.55 1.00 94 1017.2
20260903083403 70 22 1.0 5.0 0.19 1.55 1.00 94 1017.0
20260903082639 70 20 2.0 12.0 0.19 1.55 1.00 94 1017.4
20260903082139 70 20 4.0 13.0 0.18 1.54 0.99 94 1018.0
20260903081636 70 0 5.0 16.0 0.09 1.45 0.90 94 1018.2
20260903081134 70 55 5.0 16.0 0.01 1.37 0.82 94 1018.1
20260903080634 71 36 4.0 13.0 0.01 1.37 0.82 94 1018.3
20260903080135 71 5 2.0 7.0 0.01 1.37 0.82 94 1018.1
20260903075906 71 5 2.0 6.0 0.01 1.37 0.82 94 1017.3
20260903075131 71 100 1.0 4.0 0.00 1.36 0.81 94 1017.3
20260903074630 72 104 1.0 3.0 0.00 1.36 0.81 94 1016.6
20260903074129 72 104 1.0 4.0 0.00 1.36 0.81 94 1016.8
20260903073628 72 104 2.0 4.0 0.00 1.36 0.81 94 1016.6
20260903073129 72 104 2.0 7.0 0.00 1.36 0.81 94 1016.6
20260903072626 72 104 2.0 7.0 0.00 1.37 0.81 94 1016.6
20260903072351 72 105 2.0 4.0 0.00 1.37 0.81 94 1016.9
20260903071627 72 105 1.0 3.0 0.00 1.37 0.81 94 1016.7
20260903071125 72 105 1.0 3.0 0.00 1.37 0.81 94 1016.6
20260903070626 72 105 1.0 4.0 0.00 1.37 0.81 94 1016.6
20260903070129 72 105 1.0 6.0 0.00 1.37 0.81 94 1016.5
20260903065624 72 105 1.0 6.0 0.00 1.37 0.81 94 1016.5
20260903065120 72 12 1.0 4.0 0.00 1.37 0.81 94 1016.6
20260903064613 72 9 1.0 4.0 0.01 1.37 0.81 94 1016.6
20260903064115 72 5 0.0 2.0 0.02 1.37 0.81 94 1016.9
20260903063615 72 5 0.0 1.0 0.10 1.37 0.81 94 1017.1
20260903063114 72 5 0.0 2.0 0.40 1.37 0.81 94 1016.8
20260903062612 72 5 0.0 2.0 0.59 1.37 0.81 94 1017.0
20260903062112 72 5 0.0 1.0 0.59 1.37 0.81 94 1017.1
20260903061611 72 5 0.0 1.0 0.59 1.37 0.81 94 1017.3
20260903061112 72 5 0.0 0.0 0.59 1.37 0.81 94 1017.6
20260903060609 72 5 0.0 1.0 0.59 1.37 0.81 94 1017.6
20260903060124 72 5 0.0 2.0 0.71 1.37 0.81 94 1017.6
20260903055834 72 5 1.0 2.0 0.75 1.37 0.81 94 1017.4
20260903055111 72 5 1.0 3.0 0.81 1.37 0.81 94 1017.3
20260903054612 72 5 1.0 3.0 0.80 1.36 0.80 94 1017.3
20260903054325 73 5 1.0 6.0 0.79 1.35 0.79 94 1017.4
20260903053835 73 5 3.0 13.0 0.71 1.27 0.74 94 1017.8
20260903053105 73 5 7.0 15.0 0.41 0.97 0.44 94 1018.6
20260903052605 73 355 7.0 15.0 0.22 0.78 0.22 94 1019.2
20260903052118 73 337 2.0 5.0 0.22 0.78 0.22 94 1018.0
20260903052105 73 349 3.0 12.0 0.22 0.78 0.22 94 1018.5
20260903051123 73 74 2.0 7.0 0.22 0.78 0.22 94 1017.4
20260903050607 73 88 3.0 8.0 0.22 0.78 0.22 94 1016.5
20260903050108 73 94 2.0 8.0 0.10 0.66 0.14 94 1016.9
20260903045606 73 150 1.0 5.0 0.06 0.62 0.07 94 1017.2
20260903045105 73 144 1.0 4.0 0.00 0.56 0.00 94 1017.3
20260903044604 73 144 1.0 4.0 0.00 0.56 0.00 94 1017.2
20260903044103 73 144 1.0 4.0 0.00 0.56 0.00 94 1017.1
20260903043601 73 146 1.0 4.0 0.00 0.56 0.00 94 1017.0
20260903043104 73 146 1.0 4.0 0.00 0.57 0.00 94 1016.9
20260903042604 73 119 1.0 4.0 0.00 0.57 0.00 94 1017.1
20260903042103 73 119 1.0 4.0 0.00 0.58 0.00 94 1017.2
20260903041605 73 113 1.0 4.0 0.00 0.58 0.00 94 1017.2
20260903041105 73 112 1.0 3.0 0.00 0.58 0.00 94 1017.2
20260903040600 73 112 1.0 4.0 0.00 0.59 0.00 94 1017.2
20260903040111 73 113 1.0 4.0 0.00 0.59 0.00 94 1017.3
20260903035601 73 112 1.0 4.0 0.00 0.59 0.59 94 1017.3
20260903035106 73 111 1.0 3.0 0.00 0.60 0.59 94 1017.6
20260903034606 73 111 0.0 2.0 0.00 0.60 0.59 94 1017.7
20260903034109 73 111 1.0 3.0 0.00 0.60 0.59 94 1017.9
20260903034101 73 111 0.0 3.0 0.00 0.60 0.59 94 1017.9
20260903033057 73 111 1.0 3.0 0.00 0.61 0.59 94 1017.8
20260903032557 73 111 1.0 2.0 0.00 0.61 0.59 94 1018.1
20260903032057 73 111 1.0 3.0 0.00 0.61 0.59 94 1018.1
20260903031558 73 111 2.0 4.0 0.00 0.61 0.59 94 1018.1
20260903031055 73 111 2.0 4.0 0.00 0.61 0.59 94 1017.8
20260903030553 73 103 1.0 4.0 0.00 0.61 0.59 94 1017.8
20260903030105 73 101 1.0 3.0 0.00 0.61 0.59 94 1017.9
20260903025554 73 101 0.0 3.0 0.00 0.61 0.59 94 1017.9
20260903025055 73 101 0.0 0.0 0.00 0.61 0.59 94 1017.9
20260903024554 73 101 0.0 0.0 0.00 0.61 0.59 94 1018.0
20260903024055 73 101 0.0 0.0 0.00 0.61 0.59 94 1017.9
20260903023555 73 101 0.0 0.0 0.00 0.61 0.59 94 1017.9
20260903023318 73 101 0.0 0.0 0.00 0.61 0.59 94 1018.0
20260903022549 73 101 0.0 1.0 0.00 0.61 0.59 94 1017.9
20260903022049 73 101 1.0 3.0 0.00 0.61 0.59 93 1018.0
20260903021808 73 101 1.0 3.0 0.00 0.61 0.59 93 1017.8
20260903021049 73 101 1.0 6.0 0.00 0.61 0.59 93 1017.7
20260903020549 73 101 1.0 6.0 0.00 0.61 0.59 93 1017.4
20260903020101 73 97 1.0 3.0 0.00 0.61 0.59 93 1017.3
20260903015548 73 97 1.0 3.0 0.00 0.61 0.59 93 1017.3
20260903015046 73 97 1.0 2.0 0.00 0.61 0.59 93 1017.5
20260903014545 73 97 1.0 2.0 0.00 0.61 0.59 93 1017.6
20260903014045 73 97 1.0 3.0 0.00 0.61 0.59 93 1017.7
20260903013544 73 97 1.0 3.0 0.00 0.61 0.59 93 1017.7
20260903013047 73 97 0.0 3.0 0.00 0.61 0.59 93 1017.7
20260903012548 73 97 0.0 3.0 0.00 0.61 0.59 93 1017.6
20260903012058 73 97 1.0 3.0 0.00 0.61 0.59 93 1017.5
20260903011546 73 97 1.0 2.0 0.00 0.61 0.59 93 1017.7
20260903011044 73 97 1.0 4.0 0.00 0.61 0.59 93 1017.6
20260903010806 73 97 2.0 4.0 0.00 0.61 0.59 93 1017.6
20260903010108 74 97 1.0 3.0 0.00 0.61 0.59 94 1017.5
20260903010055 74 97 1.0 4.0 0.00 0.61 0.59 93 1017.6
20260903005044 74 97 0.0 3.0 0.00 0.61 0.59 94 1017.6
20260903004542 74 97 0.0 3.0 0.00 0.61 0.59 93 1017.7
20260903004043 73 97 0.0 3.0 0.00 0.61 0.59 94 1017.7
20260903003541 73 97 0.0 1.0 0.00 0.61 0.59 93 1017.6
20260903003040 73 97 0.0 1.0 0.00 0.62 0.59 93 1017.5
20260903002539 73 97 0.0 1.0 0.00 0.62 0.59 93 1017.5
20260903002300 73 97 0.0 0.0 0.00 0.70 0.59 93 1017.5
20260903001537 73 97 0.0 1.0 0.00 0.73 0.59 93 1017.6
20260903001039 73 97 0.0 1.0 0.00 0.74 0.59 93 1017.5
20260903000756 73 97 0.0 1.0 0.00 0.75 0.59 93 1017.5
20260903000257 74 97 0.0 1.0 0.00 0.75 0.59 93 1017.4
20260902235535 74 97 0.0 1.0 0.00 0.77 0.59 93 1017.5
20260902235033 74 97 0.0 1.0 0.00 0.77 0.59 93 1017.4
20260902234530 74 97 0.0 1.0 0.00 0.77 0.59 93 1017.3
20260902234035 74 97 0.0 2.0 0.00 0.77 0.59 93 1017.3
20260902233530 74 97 0.0 2.0 0.00 0.77 0.59 93 1017.3
20260902233026 74 97 0.0 1.0 0.00 0.77 0.59 92 1017.3
20260902232529 74 97 0.0 1.0 0.00 0.77 0.59 93 1017.5
20260902232025 74 97 0.0 1.0 0.00 0.77 0.59 92 1017.4
20260902231524 74 97 0.0 2.0 0.00 0.77 0.59 92 1017.4
20260902231025 74 97 0.0 2.0 0.00 0.77 0.59 92 1017.6
20260902230802 74 97 0.0 1.0 0.00 0.77 0.59 92 1017.6
20260902230244 74 97 0.0 4.0 0.00 0.77 0.59 92 1017.7
20260902225519 74 97 0.0 4.0 0.00 0.77 0.59 92 1017.6
20260902225028 75 97 1.0 7.0 0.00 0.77 0.59 92 1017.4
20260902225018 75 97 0.0 1.0 0.00 0.77 0.59 92 1017.5
20260902224019 75 97 1.0 7.0 0.00 0.77 0.59 92 1017.5
20260902223518 75 137 1.0 5.0 0.00 0.77 0.59 92 1017.4
20260902223244 75 137 1.0 5.0 0.00 0.77 0.59 92 1017.5
20260902222747 75 148 0.0 3.0 0.00 0.77 0.59 92 1017.5
20260902222018 75 148 0.0 5.0 0.00 0.77 0.59 92 1017.5
20260902221518 75 148 0.0 5.0 0.00 0.77 0.59 92 1017.8
20260902221020 75 148 1.0 5.0 0.00 0.77 0.59 92 1017.9
20260902220520 75 148 1.0 5.0 0.00 0.77 0.59 92 1017.9
20260902220016 75 109 1.0 6.0 0.00 0.77 0.59 92 1018.0
20260902215517 75 109 1.0 6.0 0.00 0.77 0.59 91 1018.0
20260902215016 75 112 1.0 3.0 0.00 0.77 0.59 91 1017.8
20260902214522 75 112 2.0 6.0 0.00 0.77 0.59 92 1017.8
20260902214016 75 113 2.0 6.0 0.00 0.77 0.59 91 1017.8
20260902213516 75 165 1.0 6.0 0.00 0.77 0.59 91 1017.8
20260902213016 75 107 1.0 6.0 0.00 0.77 0.59 92 1017.6
20260902212515 75 109 1.0 6.0 0.00 0.77 0.59 92 1017.7
20260902212019 75 178 1.0 6.0 0.00 0.77 0.59 92 1017.8
20260902211514 75 169 1.0 6.0 0.00 0.77 0.59 92 1017.9
20260902211215 75 101 2.0 8.0 0.00 0.77 0.59 92 1017.7
20260902211109 75 101 2.0 8.0 0.00 0.77 0.59 92 1017.8
20260902210016 75 144 1.0 4.0 0.00 0.77 0.59 92 1017.7
20260902205514 75 146 1.0 4.0 0.00 0.77 0.59 93 1017.7
20260902205016 75 146 1.0 4.0 0.00 0.77 0.59 92 1017.7
20260902204516 74 146 1.0 4.0 0.00 0.77 0.59 92 1017.7
20260902204011 74 148 1.0 3.0 0.00 0.77 0.59 92 1017.8
20260902203514 74 147 1.0 5.0 0.00 0.77 0.59 92 1017.6
20260902203009 74 147 1.0 5.0 0.00 0.77 0.59 92 1017.4
20260902202510 75 105 0.0 3.0 0.00 0.77 0.59 92 1017.6
20260902202009 75 104 0.0 2.0 0.00 0.77 0.59 93 1017.9
20260902201736 74 104 0.0 2.0 0.00 0.77 0.59 93 1018.2
20260902201008 74 104 0.0 2.0 0.00 0.77 0.59 93 1018.2
20260902200731 74 104 0.0 3.0 0.00 0.77 0.59 93 1018.3
20260902200008 74 104 1.0 4.0 0.00 0.77 0.59 93 1018.2
20260902195731 74 105 1.0 6.0 0.00 0.77 0.59 93 1018.0
20260902195006 74 105 1.0 6.0 0.00 0.77 0.59 93 1018.0
20260902194508 74 111 2.0 6.0 0.00 0.77 0.59 93 1017.8
20260902194231 74 111 2.0 7.0 0.00 0.77 0.59 94 1017.9
20260902193738 74 123 2.0 7.0 0.01 0.77 0.59 94 1017.9
20260902193006 74 93 1.0 6.0 0.01 0.77 0.59 94 1018.0
20260902192506 73 90 1.0 6.0 0.01 0.77 0.59 93 1017.8
20260902192005 73 80 1.0 4.0 0.01 0.77 0.59 94 1017.8
20260902191505 73 80 1.0 3.0 0.01 0.77 0.59 94 1017.8
20260902191224 73 80 1.0 4.0 0.01 0.77 0.59 94 1017.7
20260902190514 73 80 1.0 4.0 0.02 0.77 0.59 94 1017.6
20260902185957 73 104 1.0 4.0 0.03 0.77 0.59 94 1017.7
20260902185456 73 104 2.0 6.0 0.05 0.77 0.59 94 1017.7
20260902185000 72 107 1.0 6.0 0.07 0.77 0.59 94 1017.8
20260902184459 73 146 1.0 3.0 0.09 0.77 0.59 94 1017.9
20260902184000 73 146 1.0 4.0 0.10 0.77 0.59 94 1017.9
20260902183454 72 146 1.0 4.0 0.10 0.76 0.58 94 1018.0
20260902182954 72 148 1.0 3.0 0.10 0.76 0.58 94 1018.0
20260902182456 72 148 0.0 5.0 0.11 0.76 0.58 94 1018.3
20260902182222 72 148 0.0 5.0 0.12 0.76 0.58 94 1018.3
20260902181456 72 148 1.0 5.0 0.32 0.76 0.58 93 1018.4
20260902180954 72 148 1.0 5.0 0.51 0.76 0.58 93 1018.2
20260902180452 72 150 0.0 2.0 0.53 0.75 0.57 93 1018.5
20260902180218 72 150 1.0 5.0 0.52 0.74 0.56 93 1018.7
20260902175723 72 150 1.0 5.0 0.50 0.72 0.54 93 1018.6
20260902175438 72 150 1.0 5.0 0.48 0.70 0.52 93 1018.9
20260902174448 72 152 1.0 6.0 0.46 0.68 0.51 93 1019.1
20260902173949 72 194 1.0 6.0 0.45 0.67 0.49 93 1018.9
20260902173451 72 92 2.0 4.0 0.44 0.66 0.48 93 1019.1
20260902172950 72 95 2.0 7.0 0.44 0.66 0.48 93 1019.4
20260902172449 72 96 2.0 7.0 0.43 0.65 0.47 93 1019.7
20260902172218 72 157 2.0 7.0 0.42 0.64 0.46 93 1020.1
20260902171454 72 159 2.0 7.0 0.22 0.44 0.30 92 1020.4
20260902170951 72 342 1.0 6.0 0.03 0.25 0.08 92 1021.6
20260902170452 72 322 0.0 2.0 0.00 0.22 0.04 92 1021.6
20260902165951 73 26 0.0 3.0 0.00 0.22 0.04 92 1020.8
20260902165450 73 26 0.0 3.0 0.00 0.22 0.04 92 1020.6
20260902164950 73 103 0.0 2.0 0.00 0.22 0.04 92 1020.3
20260902164503 73 105 0.0 2.0 0.00 0.22 0.04 92 1019.9
20260902164209 73 105 1.0 4.0 0.00 0.22 0.04 92 1020.0
20260902163446 73 105 1.0 4.0 0.00 0.22 0.04 92 1020.1
20260902163207 73 104 1.0 4.0 0.00 0.22 0.04 91 1019.9
20260902162444 73 107 1.0 3.0 0.00 0.22 0.04 91 1019.8
20260902162216 74 103 1.0 8.0 0.00 0.22 0.04 91 1019.4
20260902161944 74 103 1.0 3.0 0.00 0.22 0.04 91 1019.6